STARLINK-34419

Last updated on Thu Jul 03 2025 00:02:07 GMT+0000 (Coordinated Universal Time)

1 64412U 25129A 25183.58335648 -.01557206 00000+0 -18484-1 0 9990 2 64412 69.9996 351.5835 0003243 265.5943 6.0457 15.63975280 3688
UTC large
Height (km)
Speed (km/s)
/
Latitude / Longitude
Inclination (degrees)
Orbital Period (minutes)
Azimuth
Elevation
Range (km)
Doppler Factor

Next 0 passes for location: London (51.5072 / 0.1276)

Sorry there are no passes over London.